Weather History for Sitka, AK

Change the Weather History Date:

Tuesday, February 19, 2013

  Actual Average Record
Temperature  
Mean Temperature 38 °F -  
Max Temperature 41 °F 40 °F 57 °F (1977)
Min Temperature 35 °F 31 °F 7 °F (1986)
Degree Days  
Heating Degree Days 27    
Moisture  
Dew Point 36 °F    
Average Humidity 92    
Maximum Humidity 100    
Minimum Humidity 70    
Precipitation  
Precipitation 0.16 in - - ()
Sea Level Pressure  
Sea Level Pressure 29.79 in    
Wind  
Wind Speed 4 mph (SSE)    
Max Wind Speed 14 mph    
Max Gust Speed 20 mph    
Visibility 8 miles    
Events Rain    
Averages and records for this station are not official NWS values.
T = Trace of Precipitation, MM = Missing Value Source: NWS Daily Summary

Daily Weather History Graph

Daily Weather History Graph

Search for Another Location

Airport:

Trip Planner

Search our weather history database for the weather conditions in past years. The results will help you decide how hot, cold, wet, or windy it might be!

Date:

Astronomy

Feb. 19, 2013 Rise Set
Actual Time 7:18 AM AKST 5:12 PM AKST
Civil Twilight 6:39 AM AKST 5:51 PM AKST
Nautical Twilight 5:55 AM AKST 6:36 PM AKST
Astronomical Twilight 5:11 AM AKST 7:20 PM AKST
Moon 11:10 AM AKST (2/19) 3:36 AM AKST (2/19)
Length of Visible Light 11h 12m
Length of Day
9h 53m
Waxing Gibbous, 69% of the Moon is Illuminated
Feb 19
Waxing Gibbous
Feb 25
Full
Mar 4
Last Quarter
Mar 11
New
Mar 19
First Quarter

Hourly Weather History & Observations

Time (AKST) Temp. Windchill Dew Point Humidity Pressure Visibility Wind Dir Wind Speed Gust Speed Precip Events Conditions
12:53 AM 36.0 °F - 34.0 °F 93% 29.82 in 10.0 mi Calm Calm - N/A   Overcast
1:53 AM 35.1 °F - 34.0 °F 96% 29.83 in 10.0 mi Calm Calm - N/A   Overcast
2:53 AM 37.0 °F - 35.1 °F 93% 29.84 in 10.0 mi Calm Calm - N/A   Overcast
3:53 AM 36.0 °F - 36.0 °F 100% 29.82 in 10.0 mi Calm Calm - N/A   Overcast
4:53 AM 37.0 °F 34.5 °F 35.1 °F 93% 29.82 in 10.0 mi ESE 3.5 mph - N/A   Overcast
5:53 AM 37.0 °F - 36.0 °F 96% 29.85 in 10.0 mi Calm Calm - N/A   Overcast
6:34 AM 37.4 °F - 35.6 °F 93% 29.87 in 7.0 mi Calm Calm - 0.00 in   Overcast
6:53 AM 37.0 °F 34.5 °F 36.0 °F 96% 29.86 in 7.0 mi ENE 3.5 mph - 0.00 in Rain Light Rain
7:22 AM 37.4 °F - 35.6 °F 93% 29.85 in 7.0 mi Calm Calm - 0.00 in   Overcast
7:53 AM 37.9 °F 35.5 °F 36.0 °F 93% 29.85 in 5.0 mi ESE 3.5 mph - 0.01 in Rain Light Rain
8:15 AM 37.4 °F 34.9 °F 35.6 °F 93% 29.85 in 3.0 mi SSE 3.5 mph - 0.00 in Rain Light Rain
8:51 AM 37.4 °F 32.8 °F 37.4 °F 100% 29.85 in 4.0 mi South 5.8 mph - 0.05 in Rain Light Rain
8:53 AM 37.9 °F 32.7 °F 37.0 °F 97% 29.86 in 4.0 mi SSW 6.9 mph - 0.05 in Rain Light Rain
9:07 AM 39.2 °F 33.0 °F 37.4 °F 93% 29.86 in 4.0 mi South 9.2 mph - 0.01 in Rain Light Rain
9:53 AM 39.0 °F 34.0 °F 37.0 °F 93% 29.86 in 7.0 mi South 6.9 mph - 0.01 in   Overcast
10:19 AM 39.2 °F 37.0 °F 37.4 °F 93% 29.85 in 8.0 mi SE 3.5 mph - N/A   Overcast
10:53 AM 39.0 °F - 37.0 °F 93% 29.85 in 9.0 mi Calm Calm - N/A   Overcast
11:07 AM 39.2 °F 37.0 °F 37.4 °F 93% 29.84 in 10.0 mi SE 3.5 mph - N/A   Overcast
11:53 AM 39.9 °F 36.7 °F 36.0 °F 86% 29.85 in 9.0 mi SE 4.6 mph - 0.00 in   Overcast
12:22 PM 39.2 °F 31.6 °F 37.4 °F 93% 29.84 in 8.0 mi SSW 12.7 mph - 0.01 in Rain Light Rain
12:51 PM 41.0 °F 35.8 °F 37.4 °F 87% 29.84 in 8.0 mi SSE 8.1 mph - 0.01 in   Overcast
12:53 PM 41.0 °F 36.4 °F 37.0 °F 86% 29.84 in 8.0 mi SE 6.9 mph - 0.01 in   Overcast
1:42 PM 37.4 °F 30.8 °F 35.6 °F 93% 29.83 in 6.0 mi SW 9.2 mph - 0.01 in Rain Light Rain
1:53 PM 39.0 °F 32.8 °F 37.0 °F 93% 29.83 in 4.0 mi SW 9.2 mph - 0.02 in Rain Light Rain
3:41 PM 37.4 °F 32.8 °F 37.4 °F 100% 29.80 in 10.0 mi SSW 5.8 mph - 0.01 in   Overcast
3:53 PM 37.9 °F 33.5 °F 36.0 °F 93% 29.80 in 9.0 mi SSW 5.8 mph - 0.01 in Rain Light Rain
4:00 PM 37.4 °F 30.3 °F 35.6 °F 93% 29.79 in 8.0 mi SSW 10.4 mph - 0.00 in Rain Light Rain
4:15 PM 37.4 °F 31.4 °F 35.6 °F 93% 29.78 in 6.0 mi SSW 8.1 mph - 0.00 in   Overcast
4:24 PM 37.4 °F 29.8 °F 35.6 °F 93% 29.78 in 6.0 mi SSW 11.5 mph - 0.00 in Rain Light Rain
4:53 PM 37.0 °F 28.5 °F 36.0 °F 96% 29.77 in 10.0 mi South 13.8 mph - 0.01 in Rain Light Rain
5:53 PM 37.9 °F 30.9 °F 36.0 °F 93% 29.75 in 9.0 mi South 10.4 mph - 0.01 in Rain Light Rain
6:53 PM 37.0 °F 31.6 °F 36.0 °F 96% 29.70 in 10.0 mi East 6.9 mph - 0.01 in   Overcast
7:53 PM 37.9 °F 30.0 °F 34.0 °F 86% 29.65 in 10.0 mi ESE 12.7 mph - N/A   Overcast
8:53 PM 39.9 °F 33.4 °F 32.0 °F 73% 29.62 in 10.0 mi ESE 10.4 mph - N/A   Overcast
9:53 PM 39.0 °F 32.8 °F 35.1 °F 86% 29.60 in 10.0 mi SE 9.2 mph - N/A   Overcast
10:53 PM 39.9 °F 32.5 °F 30.9 °F 70% 29.55 in 10.0 mi ESE 12.7 mph - N/A   Overcast
11:28 PM 39.2 °F 31.2 °F 33.8 °F 81% 29.55 in 9.0 mi SE 13.8 mph 19.6 mph 0.01 in Rain Light Rain
11:53 PM 37.9 °F 30.0 °F 34.0 °F 86% 29.54 in 6.0 mi SE 12.7 mph - 0.02 in Rain Light Rain